Regional Weather Roundup
Issued by NWS

Home | Current Version | Previous Version | Graphics & Text | Print | Product List | Glossary On
Versions: 1 2 3 4 5 6 7 8 9 10 11 12 13 14 15 16 17 18 19 20 21 22 23 24 25 26 27 28 29 30 31 32 33 34 35 36 37 38 39 40 41 42 43 44 45 46 47 48 49 50
000
ASUS43 KLSX 011910
RWRMO

WEATHER SUMMARY FOR MISSOURI
NATIONAL WEATHER SERVICE SPRINGFIELD MO
200 PM CDT SUN MAY 01 2016

NOTE: "FAIR" INDICATES FEW OR NO CLOUDS BELOW 12,000 FEET WITH NO
       SIGNIFICANT WEATHER AND/OR OBSTRUCTIONS TO VISIBILITY.
       CURRENT SKY AND/OR WEATHER CONDITIONS ARE NOT AVAILABLE FOR
       CHILLICOTHE AND FARMINGTON.

MOZ001>031-035>038-043-044-053-054-012000-
...NORTHERN AND WESTERN MISSOURI...

CITY           SKY/WX    TMP DP  RH WIND       PRES   REMARKS
KANSAS CTY INT DRIZZLE   58  47  66 NW12      30.01R
KANSAS C DTWN  CLOUDY    61  46  57 NW9       30.00R
LEE`S SUMMIT   CLOUDY    60  44  55 W12       30.01S
ST JOSEPH      CLOUDY    53  48  83 NW13      30.04R
CHILLICOTHE      N/A     57  52  83 VRB5      30.00R
KIRKSVILLE     CLOUDY    52  49  89 N6        29.98R FOG

$$
MOZ066>068-077>081-088>096-101>105-012000-
...SOUTHWEST MISSOURI...

CITY           SKY/WX    TMP DP  RH WIND       PRES   REMARKS
SPRINGFIELD    MOSUNNY   65  44  46 NW14G20   30.01S
JOPLIN         PTSUNNY   60  44  55 W13       30.05S
BRANSON        MOSUNNY   68  45  42 NW12G17   30.02S

$$
MOZ032>034-039>042-045>050-055>058-069>072-012000-
...CENTRAL MISSOURI...

CITY           SKY/WX    TMP DP  RH WIND       PRES   REMARKS
COLUMBIA       PTSUNNY   65  47  52 W15       29.97R
JEFFERSON CITY MOSUNNY   66  46  48 W16G23    29.96R
ROLLA          SUNNY     67  49  52 W13       29.94S
SEDALIA        CLOUDY    63  45  51 SW8G22    30.00R
WHITEMAN AFB   PTSUNNY   62  44  51 W14       29.99R
WARRENSBURG    CLOUDY    61  43  51 W9G17     30.00R
OSAGE BEACH    PTSUNNY   66  43  42 SW13G18   29.98R

$$
MOZ051-052-059>065-012000-
...EAST CENTRAL MISSOURI...

CITY           SKY/WX    TMP DP  RH WIND       PRES   REMARKS
ST LOUIS INTL  CLOUDY    68  58  70 CALM      29.94F
SPIRIT OF STL  CLOUDY    68  56  65 S5        29.91F
ST CHARLES     CLOUDY    65  58  78 CALM      29.93F

$$
MOZ072>076-082>087-097>100-106>115-012000-
...SOUTH CENTRAL AND SOUTHEAST MISSOURI...

CITY           SKY/WX    TMP DP  RH WIND       PRES   REMARKS
CAPE GIRARDEAU PTSUNNY   77  63  61 SW7       29.91F
FARMINGTON     MOSUNNY   74  58  57 W9        29.93F
POPLAR BLUFF   MOSUNNY   77  61  57 SW10      29.92S
WEST PLAINS    SUNNY     72  48  42 W12       29.98R

$$




USA.gov is the U.S. government's official web portal to all federal, state and local government web resources and services.